This is the latest recevied weather packets stored in our database for station/object LZ1HCO-25. If no packets are shown the sender has not sent any weather packets the latest 10 day(s).
| Time | Temp. | Humidity | Pressure | Rain* | Wind** | Luminosity | Snow |
|---|---|---|---|---|---|---|---|
| 1778071430 | 26.11° C | 45% | 966 hPa | - | - | 0 W/m² | - |
| 1778071119 | 26.67° C | 46% | 966 hPa | - | - | 0 W/m² | - |
| 1778070808 | 26.67° C | 47% | 966 hPa | - | - | 0 W/m² | - |
| 1778070496 | 26.11° C | 47% | 966 hPa | - | - | 0 W/m² | - |
| 1778070185 | 26.67° C | 45% | 966 hPa | - | - | 0 W/m² | - |
| 1778069874 | 28.33° C | 47% | 966 hPa | - | - | 0 W/m² | - |
| 1778069562 | 27.78° C | 48% | 966 hPa | - | - | 0 W/m² | - |
| 1778069251 | 27.22° C | 48% | 966 hPa | - | - | 0 W/m² | - |
| 1778068939 | 27.78° C | 48% | 966 hPa | - | - | 0 W/m² | - |
| 1778068628 | 27.22° C | 45% | 967 hPa | - | - | 0 W/m² | - |
| 1778068316 | 27.22° C | 45% | 967 hPa | - | - | 0 W/m² | - |
| 1778068005 | 27.78° C | 47% | 967 hPa | - | - | 0 W/m² | - |
| 1778067694 | 26.67° C | 47% | 967 hPa | - | - | 0 W/m² | - |
| 1778067382 | 25.56° C | 47% | 967 hPa | - | - | 0 W/m² | - |
| 1778067071 | 27.78° C | 44% | 967 hPa | - | - | 0 W/m² | - |
| 1778066760 | 26.67° C | 47% | 967 hPa | - | - | 0 W/m² | - |
| 1778066448 | 26.67° C | 45% | 967 hPa | - | - | 0 W/m² | - |
| 1778066137 | 27.78° C | 45% | 967 hPa | - | - | 0 W/m² | - |
| 1778065826 | 27.22° C | 45% | 967 hPa | - | - | 0 W/m² | - |
| 1778065514 | 26.67° C | 42% | 967 hPa | - | - | 0 W/m² | - |
| 1778065203 | 26.67° C | 42% | 967 hPa | - | - | 0 W/m² | - |
| 1778064891 | 28.33° C | 43% | 967 hPa | - | - | 0 W/m² | - |
| 1778064580 | 26.67° C | 39% | 967 hPa | - | - | 0 W/m² | - |
| 1778064269 | 27.22° C | 39% | 967 hPa | - | - | 0 W/m² | - |
| 1778063958 | 27.22° C | 42% | 967 hPa | - | - | 0 W/m² | - |
* Rain since midnight (hover to see other rain measurements)
** Current wind speed in m/s (hover to see current wind gust speed)